Regional Weather Roundup
Issued by NWS

Home | Current Version | Previous Version | Graphics & Text | Print | Product List | Glossary Off
Versions: 1 2 3 4 5 6 7 8 9 10 11 12 13 14 15 16 17 18 19 20 21 22 23 24 25 26 27 28 29 30 31 32 33 34 35 36 37 38 39 40 41 42 43 44 45 46 47 48 49 50

000
ASUS43 KDMX 170907
RWRIA

WEATHER ROUNDUP FOR IOWA
NATIONAL WEATHER SERVICE DES MOINES IA
400 AM CDT WED SEP 17 2014

NOTE: "FAIR" INDICATES FEW OR NO CLOUDS BELOW 12,000 FEET WITH NO
SIGNIFICANT WEATHER AND/OR OBSTRUCTIONS TO VISIBILITY.

* - THESE STATIONS ARE NOT NWS STATIONS...THUS NOT UNDER NWS
QUALITY CONTROL.  THEY ALSO DO NOT REPORT WEATHER SUCH
AS PRECIPITATION OR FOG.

IAZ001>003-012>014-020>022-031>034-043>046-171000-
   NORTHWEST IOWA

CITY           SKY/WX    TMP DP  RH WIND       PRES   REMARKS
CARROLL *      CLOUDY    54  52  94 SE3       29.97F
CHEROKEE *     CLOUDY    54  52  94 CALM      29.96F
DENISON *      CLOUDY    57  52  82 S3        29.95F
LE MARS *        N/A     52  50  93 CALM      29.96S
ORANGE CITY *  CLEAR     55  48  76 S5        29.95F
SHELDON *      CLEAR     50  48  93 SE5       29.95F
SIOUX CITY     PTCLDY    56  52  86 SE5       29.95F
SPENCER        CLOUDY    53  49  86 SE5       29.97F
STORM LAKE *   MOCLDY    50  50 100 S7        29.97F
$$

IAZ055>058-069>071-079>083-090>094-171000-
   SOUTHWEST IOWA

CITY           SKY/WX    TMP DP  RH WIND       PRES   REMARKS
ATLANTIC *     CLOUDY    59  54  82 CALM      29.97F
AUDUBON *      CLOUDY    55  48  76 CALM      29.99F
CLARINDA *     CLOUDY    61  55  82 CALM      29.98F
COUNCIL BLFS * CLOUDY    59  57  94 SE7       29.95F
CRESTON *      CLOUDY    55  54  94 SE6       29.99S
HARLAN  *      CLOUDY    57  55  94 E3        30.00F
LAMONI         CLOUDY    57  51  80 SE6       29.98F
SHENANDOAH *   CLOUDY    61  55  82 SE7       29.96F
$$

IAZ047>049-059>061-072>074-084-171000-
   CENTRAL IOWA

CITY           SKY/WX    TMP DP  RH WIND       PRES   REMARKS
AMES           PTCLDY    47  47 100 CALM      30.00F
ANKENY *       CLOUDY    52  50  93 CALM      30.00F
CHARITON *     CLOUDY    55  52  88 SE5       29.99F
DES MOINES     CLOUDY    57  49  74 SE5       30.00F
GRINNELL*      PTCLDY    48  45  87 SE5       30.02S
KNOXVILLE *    CLOUDY    52  48  87 SE6       29.99F
MARSHALLTOWN   PTCLDY    51  48  89 SE5       30.00F
PELLA *        MOCLDY    52  50  93 CALM      30.02F
PERRY *        CLOUDY    52  52 100 CALM      29.99F
$$

IAZ004>006-015-016-023>025-035-036-171000-
   NORTH CENTRAL IOWA

CITY           SKY/WX    TMP DP  RH WIND       PRES   REMARKS
ALGONA *       CLOUDY    52  50  93 S3        29.99F
CLARION *        N/A     48  46  93 SE5       29.99F
ESTHERVILLE    CLOUDY    52  49  89 S7        29.97F
FORT DODGE *   PTCLDY    52  46  82 S3        29.99F
MASON CITY     CLOUDY    48  46  93 S3        30.01F
FOREST CITY *  CLOUDY    50  50 100 CALM      29.99F
IOWA FALLS *   CLOUDY    52  48  87 CALM      30.01F
$$

IAZ007>011-017>019-026>030-037>042-050>054-066-171000-
   NORTHEAST IOWA

CITY           SKY/WX    TMP DP  RH WIND       PRES   REMARKS
CEDAR RAPIDS   PTCLDY    46  46 100 SE3       30.02F
CHARLES CITY * CLEAR     46  43  87 S5        30.02F
CLINTON *      CLEAR     43  39  87 E6        30.06F
DECORAH *      MOCLDY    45  43  93 CALM      30.02S
DUBUQUE        CLEAR     44  41  89 S3        30.03F
MONTICELLO *   MOCLDY    43  43 100 CALM      30.03S
OELWEIN *      CLOUDY    48  45  87 CALM      30.03S
WATERLOO       CLOUDY    48  46  93 NE5       30.01S
$$

IAZ064-065-067-068-078-171000-
   EAST CENTRAL IOWA

CITY           SKY/WX    TMP DP  RH WIND       PRES   REMARKS
DAVENPORT      CLEAR     46  42  86 SE6       30.04F
IOWA CITY      PTCLDY    49  47  93 CALM      30.04F
MT. PLEASANT * PTCLDY    48  46  93 SE5       30.03F
MUSCATINE *    MOCLDY    46  45  93 CALM      30.04F
QUAD CITIES    CLEAR     46  43  89 CALM      30.04F
$$

IAZ062-063-075>077-085>089-095>099-171000-
   SOUTHEAST IOWA

CITY           SKY/WX    TMP DP  RH WIND       PRES   REMARKS
BURLINGTON     PTCLDY    47  47 100 S5        30.03F FOG
FAIRFIELD *    CLOUDY    50  46  87 SE3       30.02F
FORT MADISON * CLEAR     54  52  94 S3        30.04F
KEOKUK *       CLEAR     50  50 100 CALM      30.03F
OSKALOOSA *      N/A     50  48  93 CALM      30.02F
CENTERVILLE *  CLOUDY    54  54 100 SE5       30.02F
OTTUMWA        MOCLDY    52  48  86 S5        30.01F
WASHINGTON *   CLEAR     46  46 100 CALM      30.02F
$$

ABBREVIATIONS USED IN REMARKS
   TC - TEMPERATURES IN CELSIUS
  WCI - WIND CHILL INDEX
   HX - HEAT INDEX
  VSB - VISIBILITY
$$




USA.gov is the U.S. government's official web portal to all federal, state and local government web resources and services.